Time,TemperatureF,DewpointF,PressureIn,WindDirection,WindDirectionDegrees,WindSpeedMPH,WindSpeedGustMPH,Humidity,HourlyPrecipIn,Conditions,Clouds,dailyrainin,SolarRadiationWatts/m^2,SoftwareType,DateUTC
2013-10-27 00:01:00,32.0,30.0,-100.00,SW,230,1.0,4.0,94,0.00,,,0.17,0.000000,,2013-10-27 05:01:00,
2013-10-27 00:43:00,32.0,30.0,-100.00,SW,230,1.0,4.0,94,0.00,,,0.17,0.000000,,2013-10-27 05:43:00,
2013-10-27 00:52:00,32.0,30.0,-100.00,SW,230,1.0,4.0,94,0.00,,,0.17,0.000000,,2013-10-27 05:52:00,
2013-10-27 01:01:00,32.0,31.0,-100.00,West,264,1.0,2.0,95,0.00,,,0.17,0.000000,,2013-10-27 06:01:00,
2013-10-27 01:22:00,32.0,31.0,-100.00,West,264,1.0,2.0,95,0.00,,,0.17,0.000000,,2013-10-27 06:22:00,
2013-10-27 01:33:00,32.0,31.0,-100.00,West,264,1.0,2.0,95,0.00,,,0.17,0.000000,,2013-10-27 06:33:00,
2013-10-27 01:42:00,32.0,31.0,-100.00,West,264,1.0,2.0,95,0.00,,,0.17,0.000000,,2013-10-27 06:42:00,
2013-10-27 01:53:00,32.0,31.0,-100.00,West,264,1.0,2.0,95,0.00,,,0.17,0.000000,,2013-10-27 06:53:00,
2013-10-27 02:01:00,33.0,30.0,-100.00,SW,235,2.0,5.0,88,0.00,,,0.17,0.000000,,2013-10-27 07:01:00,
2013-10-27 02:22:00,33.0,30.0,-100.00,SW,235,2.0,5.0,88,0.00,,,0.17,0.000000,,2013-10-27 07:22:00,
2013-10-27 02:32:00,33.0,30.0,-100.00,SW,235,2.0,5.0,88,0.00,,,0.17,0.000000,,2013-10-27 07:32:00,
2013-10-27 02:42:00,33.0,30.0,-100.00,SW,235,2.0,5.0,88,0.00,,,0.17,0.000000,,2013-10-27 07:42:00,
2013-10-27 02:52:00,33.0,30.0,-100.00,SW,235,2.0,5.0,88,0.00,,,0.17,0.000000,,2013-10-27 07:52:00,
2013-10-27 03:01:00,33.0,30.0,-100.00,WSW,247,3.0,6.0,87,0.00,,,0.17,0.000000,,2013-10-27 08:01:00,
2013-10-27 03:22:00,33.0,30.0,-100.00,WSW,247,3.0,6.0,87,0.00,,,0.17,0.000000,,2013-10-27 08:22:00,
2013-10-27 03:32:00,33.0,30.0,-100.00,WSW,247,3.0,6.0,87,0.00,,,0.17,0.000000,,2013-10-27 08:32:00,
2013-10-27 03:42:00,33.0,30.0,-100.00,WSW,247,3.0,6.0,87,0.00,,,0.17,0.000000,,2013-10-27 08:42:00,
2013-10-27 03:52:00,33.0,30.0,-100.00,WSW,247,3.0,6.0,87,0.00,,,0.17,0.000000,,2013-10-27 08:52:00,
2013-10-27 04:01:00,33.0,30.0,-100.00,WSW,254,3.0,6.0,87,0.00,,,0.12,0.000000,,2013-10-27 09:01:00,
2013-10-27 04:43:00,33.0,30.0,-100.00,WSW,254,3.0,6.0,87,0.00,,,0.12,0.000000,,2013-10-27 09:43:00,
2013-10-27 04:54:00,33.0,30.0,-100.00,WSW,254,3.0,6.0,87,0.00,,,0.12,0.000000,,2013-10-27 09:54:00,
2013-10-27 05:01:00,32.0,29.0,-100.00,WSW,240,3.0,6.0,89,0.00,,,0.09,0.000000,,2013-10-27 10:01:00,
2013-10-27 05:42:00,32.0,29.0,-100.00,WSW,240,3.0,6.0,89,0.00,,,0.09,0.000000,,2013-10-27 10:42:00,
2013-10-27 05:53:00,32.0,29.0,-100.00,WSW,240,3.0,6.0,89,0.00,,,0.09,0.000000,,2013-10-27 10:53:00,
2013-10-27 06:01:00,32.0,28.0,-100.00,WSW,239,5.0,9.0,86,0.00,,,0.09,0.000000,,2013-10-27 11:01:00,
2013-10-27 06:42:00,32.0,28.0,-100.00,WSW,239,5.0,9.0,86,0.00,,,0.09,0.000000,,2013-10-27 11:42:00,
2013-10-27 06:52:00,32.0,28.0,-100.00,WSW,239,5.0,9.0,86,0.00,,,0.09,0.000000,,2013-10-27 11:52:00,
2013-10-27 07:01:00,32.0,28.0,-100.00,WSW,247,4.0,8.0,85,0.00,,,0.09,0.000000,,2013-10-27 12:01:00,
2013-10-27 07:42:00,32.0,28.0,-100.00,WSW,247,4.0,8.0,85,0.00,,,0.09,0.000000,,2013-10-27 12:42:00,
2013-10-27 07:52:00,32.0,28.0,-100.00,WSW,247,4.0,8.0,85,0.00,,,0.09,0.000000,,2013-10-27 12:52:00,
2013-10-27 08:01:00,32.0,27.0,-100.00,WSW,243,5.0,10.0,81,0.00,,,0.09,6.000000,,2013-10-27 13:01:00,
2013-10-27 08:42:00,32.0,27.0,-100.00,WSW,243,5.0,10.0,81,0.00,,,0.09,6.000000,,2013-10-27 13:42:00,
2013-10-27 08:52:00,32.0,27.0,-100.00,WSW,243,5.0,10.0,81,0.00,,,0.09,6.000000,,2013-10-27 13:52:00,
2013-10-27 09:01:00,34.0,27.0,-100.00,WSW,239,6.0,13.0,76,0.00,,,0.07,65.000000,,2013-10-27 14:01:00,
2013-10-27 09:42:00,34.0,27.0,-100.00,WSW,239,6.0,13.0,76,0.00,,,0.07,65.000000,,2013-10-27 14:42:00,
2013-10-27 09:52:00,34.0,27.0,-100.00,WSW,239,6.0,13.0,76,0.00,,,0.07,65.000000,,2013-10-27 14:52:00,
2013-10-27 10:01:00,37.0,27.0,-100.00,WSW,247,8.0,14.0,68,0.00,,,0.01,178.000000,,2013-10-27 15:01:00,
2013-10-27 10:45:00,37.0,27.0,-100.00,WSW,247,8.0,14.0,68,0.00,,,0.01,178.000000,,2013-10-27 15:45:00,
2013-10-27 10:54:00,37.0,27.0,-100.00,WSW,247,8.0,14.0,68,0.00,,,0.01,178.000000,,2013-10-27 15:54:00,
2013-10-27 11:01:00,40.0,27.0,-100.00,WSW,237,8.0,16.0,59,0.00,,,0.00,361.000000,,2013-10-27 16:01:00,
2013-10-27 11:43:00,40.0,27.0,-100.00,WSW,237,8.0,16.0,59,0.00,,,0.00,361.000000,,2013-10-27 16:43:00,
2013-10-27 11:53:00,40.0,27.0,-100.00,WSW,237,8.0,16.0,59,0.00,,,0.00,361.000000,,2013-10-27 16:53:00,
2013-10-27 12:01:00,41.0,27.0,-100.00,WSW,239,8.0,18.0,57,0.00,,,0.00,251.000000,,2013-10-27 17:01:00,
2013-10-27 12:43:00,41.0,27.0,-100.00,WSW,239,8.0,18.0,57,0.00,,,0.00,251.000000,,2013-10-27 17:43:00,
2013-10-27 12:53:00,41.0,27.0,-100.00,WSW,239,8.0,18.0,57,0.00,,,0.00,251.000000,,2013-10-27 17:53:00,
2013-10-27 13:01:00,47.0,28.0,-100.00,WSW,243,8.0,16.0,47,0.00,,,0.00,419.000000,,2013-10-27 18:01:00,
2013-10-27 13:43:00,47.0,28.0,-100.00,WSW,243,8.0,16.0,47,0.00,,,0.00,419.000000,,2013-10-27 18:43:00,
2013-10-27 13:52:00,47.0,28.0,-100.00,WSW,243,8.0,16.0,47,0.00,,,0.00,419.000000,,2013-10-27 18:52:00,
2013-10-27 14:01:00,46.0,28.0,-100.00,WSW,256,8.0,20.0,49,0.00,,,0.00,411.000000,,2013-10-27 19:01:00,
2013-10-27 14:22:00,46.0,28.0,-100.00,WSW,256,8.0,20.0,49,0.00,,,0.00,411.000000,,2013-10-27 19:22:00,
2013-10-27 14:32:00,46.0,28.0,-100.00,WSW,256,8.0,20.0,49,0.00,,,0.00,411.000000,,2013-10-27 19:32:00,
2013-10-27 14:42:00,46.0,28.0,-100.00,WSW,256,8.0,20.0,49,0.00,,,0.00,411.000000,,2013-10-27 19:42:00,
2013-10-27 14:52:00,46.0,28.0,-100.00,WSW,256,8.0,20.0,49,0.00,,,0.00,411.000000,,2013-10-27 19:52:00,
2013-10-27 15:01:00,45.0,28.0,-100.00,WNW,299,7.0,16.0,52,0.00,,,0.00,359.000000,,2013-10-27 20:01:00,
2013-10-27 15:43:00,45.0,28.0,-100.00,WNW,299,7.0,16.0,52,0.00,,,0.00,359.000000,,2013-10-27 20:43:00,
2013-10-27 15:52:00,45.0,28.0,-100.00,WNW,299,7.0,16.0,52,0.00,,,0.00,359.000000,,2013-10-27 20:52:00,
2013-10-27 16:01:00,43.0,30.0,-100.00,NNW,342,7.0,18.0,61,0.00,,,0.00,239.000000,,2013-10-27 21:01:00,
2013-10-27 16:44:00,43.0,30.0,-100.00,NNW,342,7.0,18.0,61,0.00,,,0.00,239.000000,,2013-10-27 21:44:00,
2013-10-27 16:54:00,43.0,30.0,-100.00,NNW,342,7.0,18.0,61,0.00,,,0.00,239.000000,,2013-10-27 21:54:00,
2013-10-27 17:01:00,40.0,30.0,-100.00,NNW,341,6.0,19.0,67,0.00,,,0.00,87.000000,,2013-10-27 22:01:00,
2013-10-27 17:43:00,40.0,30.0,-100.00,NNW,341,6.0,19.0,67,0.00,,,0.00,87.000000,,2013-10-27 22:43:00,
2013-10-27 17:54:00,40.0,30.0,-100.00,NNW,341,6.0,19.0,67,0.00,,,0.00,87.000000,,2013-10-27 22:54:00,
2013-10-27 18:01:00,39.0,31.0,-100.00,North,4,5.0,13.0,72,0.00,,,0.00,6.000000,,2013-10-27 23:01:00,
2013-10-27 18:42:00,39.0,31.0,-100.00,North,4,5.0,13.0,72,0.00,,,0.00,6.000000,,2013-10-27 23:42:00,
2013-10-27 18:52:00,39.0,31.0,-100.00,North,4,5.0,13.0,72,0.00,,,0.00,6.000000,,2013-10-27 23:52:00,
2013-10-27 19:01:00,38.0,30.0,-100.00,North,3,5.0,12.0,74,0.00,,,0.00,0.000000,,2013-10-28 00:01:00,
2013-10-27 19:22:00,38.0,30.0,-100.00,North,3,5.0,12.0,74,0.00,,,0.00,0.000000,,2013-10-28 00:22:00,
2013-10-27 19:32:00,38.0,30.0,-100.00,North,3,5.0,12.0,74,0.00,,,0.00,0.000000,,2013-10-28 00:32:00,
2013-10-27 19:43:00,38.0,30.0,-100.00,North,3,5.0,12.0,74,0.00,,,0.00,0.000000,,2013-10-28 00:43:00,
2013-10-27 19:52:00,38.0,30.0,-100.00,North,3,5.0,12.0,74,0.00,,,0.00,0.000000,,2013-10-28 00:52:00,
2013-10-27 20:01:00,36.0,32.0,-100.00,North,350,5.0,13.0,85,0.00,,,0.00,0.000000,,2013-10-28 01:01:00,
2013-10-27 20:42:00,36.0,32.0,-100.00,North,350,5.0,13.0,85,0.00,,,0.00,0.000000,,2013-10-28 01:42:00,
2013-10-27 20:52:00,36.0,32.0,-100.00,North,350,5.0,13.0,85,0.00,,,0.00,0.000000,,2013-10-28 01:52:00,
2013-10-27 21:01:00,35.0,32.0,-100.00,NNE,22,7.0,14.0,89,0.01,,,0.01,0.000000,,2013-10-28 02:01:00,
2013-10-27 21:42:00,35.0,32.0,-100.00,NNE,22,7.0,14.0,89,0.01,,,0.01,0.000000,,2013-10-28 02:42:00,
2013-10-27 21:53:00,35.0,32.0,-100.00,NNE,22,7.0,14.0,89,0.01,,,0.01,0.000000,,2013-10-28 02:53:00,
2013-10-27 22:01:00,33.0,31.0,-100.00,NE,55,8.0,18.0,94,0.01,,,0.02,0.000000,,2013-10-28 03:01:00,
2013-10-27 22:44:00,33.0,31.0,-100.00,NE,55,8.0,18.0,94,0.01,,,0.02,0.000000,,2013-10-28 03:44:00,
2013-10-27 22:54:00,33.0,31.0,-100.00,NE,55,8.0,18.0,94,0.01,,,0.02,0.000000,,2013-10-28 03:54:00,
2013-10-27 23:01:00,32.0,27.0,-100.00,NE,46,8.0,22.0,83,0.00,,,0.02,0.000000,,2013-10-28 04:01:00,
2013-10-27 23:43:00,32.0,27.0,-100.00,NE,46,8.0,22.0,83,0.00,,,0.02,0.000000,,2013-10-28 04:43:00,
2013-10-27 23:53:00,32.0,27.0,-100.00,NE,46,8.0,22.0,83,0.00,,,0.02,0.000000,,2013-10-28 04:53:00,